Flag for U.S.A. Weather past 2 weeks in St. Paul, Minnesota, U.S.A.

Now
25 °F

Overcast.


Feels Like: 15 °F
Forecast: 18 / 33 °F
Wind: 10 mph from North

Location: St. Paul Downtown Holman Field

Current Time: Jan 25, 2015 at 6:55:34 AM

Latest Report: Jan 25, 2015 at 5:53 AM


Visibility: 10 mi

Pressure: 29.92 "Hg

Humidity: 72%

Dew point: 17 °F

Location of St. PaulLocation

Historic Weather in St. Paul — Graph

°F

St. Paul temperature yesterday

Maximum temperature yesterday: 41 °F (at 1:53 PM)
Minimum temperature yesterday: 25 °F (at 7:53 AM)
Average temperature yesterday: 34 °F

Past Weeks' High & Low Weather Summary

 TemperatureHumidityPressure
High41 °F (Jan 24, 1:53 PM)100% (Jan 24, 6:53 AM)30.87 "Hg (Jan 24, 6:53 AM)
Low-12 °F (Jan 13, 7:53 AM)51% (Jan 11, 12:53 PM)29.52 "Hg (Jan 17, 12:53 PM)
Average23 °F79%30.11 "Hg
* Reported Jan 10 5:53 AM — Jan 25 5:53 AM, St. Paul, Weather by CustomWeather, © 2014

Note: Actual official high and low records may vary slightly from our data, if they occured in-between our weather recording intervals... More about our weather records

Advertising

St. Paul weather history for previous 24 hours

 ConditionsComfort  
Time TempWeatherWind HumidityBarometerVisibility
5:53 AM
Jan 25
25 °FOvercast.10 mph72%29.92 "Hg10 mi
4:53 AM28 °FOvercast.10 mph75%29.88 "Hg10 mi
3:53 AM30 °FOvercast.14 mph75%29.84 "Hg10 mi
2:53 AM31 °FOvercast.13 mph82%29.80 "Hg10 mi
1:53 AM32 °FLight snow. Ice fog.12 mph88%29.77 "Hg4 mi
1:01 AM34 °FLight snow. Fog.7 mph92%29.73 "Hg6 mi
11:53 PM
Jan 24
35 °FLight rain. Mostly cloudy.8 mph85%29.71 "Hg7 mi
10:53 PM35 °FOvercast.9 mph85%29.68 "Hg8 mi
9:53 PM36 °FOvercast.6 mph82%29.66 "Hg10 mi
8:53 PM36 °FOvercast.No wind82%29.65 "Hg10 mi
7:53 PM36 °FOvercast.No wind82%29.64 "Hg10 mi
6:53 PM36 °FClear.No wind82%29.63 "Hg10 mi
5:53 PM39 °FPassing clouds.No wind73%29.62 "Hg10 mi
4:53 PM39 °FPartly sunny.3 mph73%29.61 "Hg10 mi
3:53 PM40 °FSunny.3 mph73%29.60 "Hg10 mi
2:53 PM41 °FSunny.3 mph70%29.60 "Hg10 mi
1:53 PM41 °FSunny.6 mph70%29.62 "Hg10 mi
12:53 PM40 °FSunny.12 mph73%29.64 "Hg10 mi
11:53 AM39 °FSunny.10 mph73%29.68 "Hg10 mi
10:53 AM35 °FSunny.No wind82%29.71 "Hg10 mi
9:53 AM32 °FSunny.6 mph92%29.72 "Hg9 mi
8:53 AM29 °FPartly sunny.No wind96%29.74 "Hg7 mi
7:53 AM25 °FPartly sunny.No wind100%29.75 "Hg7 mi
6:53 AM26 °FPassing clouds.No wind100%29.77 "Hg10 mi
Weather by CustomWeather, © 2014

See weather overviewHow to use our weather pages